This is the latest recevied weather packets stored in our database for station/object K0QJ. If no packets are shown the sender has not sent any weather packets the latest 1 day(s).
| Time | Temp. | Humidity | Pressure | Rain* | Wind** | Luminosity | Snow |
|---|---|---|---|---|---|---|---|
| 1778018898 | 10.56° C | 83% | 1010.9 hPa | 0 mm | 0.45 m/s, 351° | 81 W/m² | - |
| 1778018595 | 10.56° C | 83% | 1010.7 hPa | 0 mm | 0 m/s | 77 W/m² | - |
| 1778018293 | 10.56° C | 83% | 1010.4 hPa | 0 mm | 0.45 m/s, 7° | 115 W/m² | - |
| 1778017990 | 10.56° C | 84% | 1010.8 hPa | 0 mm | 0 m/s | 171 W/m² | - |
| 1778017688 | 10.56° C | 84% | 1010.4 hPa | 0 mm | 0.45 m/s, 0° | 131 W/m² | - |
| 1778017385 | 10.56° C | 85% | 1011 hPa | 0 mm | 0.45 m/s, 314° | 127 W/m² | - |
| 1778017082 | 10.56° C | 86% | 1010.8 hPa | 0 mm | 0.45 m/s, 342° | 95 W/m² | - |
| 1778016780 | 10° C | 86% | 1010.5 hPa | 0 mm | 0.45 m/s, 6° | 137 W/m² | - |
| 1778016475 | 10° C | 88% | 1010.6 hPa | 0 mm | 0.45 m/s, 342° | 156 W/m² | - |
| 1778016173 | 10° C | 89% | 1010.7 hPa | 0 mm | 0 m/s | 175 W/m² | - |
| 1778015869 | 9.44° C | 91% | 1010.9 hPa | 0 mm | 0 m/s | 165 W/m² | - |
| 1778015567 | 9.44° C | 92% | 1010.9 hPa | 0 mm | 0.45 m/s, 23° | 134 W/m² | - |
| 1778015263 | 9.44° C | 93% | 1010.9 hPa | 0 mm | 0.45 m/s, 340° | 128 W/m² | - |
| 1778014960 | 8.89° C | 94% | 1011 hPa | 0 mm | 0.45 m/s, 349° | 140 W/m² | - |
| 1778014658 | 8.89° C | 95% | 1011 hPa | 0 mm | 0.45 m/s, 316° | 136 W/m² | - |
| 1778014356 | 8.89° C | 95% | 1010.8 hPa | 0 mm | 0 m/s | 109 W/m² | - |
| 1778014052 | 8.89° C | 95% | 1010.9 hPa | 0 mm | 0 m/s | 88 W/m² | - |
| 1778013750 | 8.33° C | 95% | 1010.9 hPa | 0 mm | 0 m/s | 77 W/m² | - |
| 1778013447 | 8.33° C | 95% | 1011.2 hPa | 0 mm | 0 m/s | 70 W/m² | - |
| 1778013144 | 8.33° C | 95% | 1011 hPa | 0 mm | 0.45 m/s, 7° | 97 W/m² | - |
| 1778012839 | 8.89° C | 96% | 1011.1 hPa | 0 mm | 0.45 m/s, 28° | 96 W/m² | - |
| 1778012536 | 8.89° C | 96% | 1011.2 hPa | 0 mm | 0 m/s | 145 W/m² | - |
| 1778012232 | 8.33° C | 96% | 1011.3 hPa | 0 mm | 0.45 m/s, 9° | 129 W/m² | - |
| 1778011930 | 8.33° C | 96% | 1010.9 hPa | 0 mm | 0.45 m/s, 359° | 121 W/m² | - |
| 1778011628 | 8.33° C | 96% | 1010.9 hPa | 0 mm | 0.45 m/s, 5° | 122 W/m² | - |
* Rain latest hour (hover to see other rain measurements)
** Current wind speed in m/s (hover to see current wind gust speed)